| time (UTC) | temp C | wind direction | speed KPH | gust KPH | rain 1hr cm | rain 24hr cm | rain mn cm | humidity % | barometer mb |
| 20260506051021 | 9 | 19 | 14.5 | 29.0 | 0.00 | 0.00 | 0.00 | 72 | 1011.6 |
| 20260506050521 | 9 | 32 | 19.3 | 29.0 | 0.00 | 0.00 | 0.00 | 73 | 1011.4 |
| 20260506045022 | 9 | 28 | 16.1 | 29.0 | 0.00 | 0.00 | 0.00 | 75 | 1011.2 |
| 20260506044551 | 9 | 36 | 17.7 | 29.0 | 0.00 | 0.00 | 0.00 | 76 | 1011.2 |
| 20260506044021 | 9 | 30 | 14.5 | 24.1 | 0.00 | 0.00 | 0.00 | 77 | 1011.3 |
| 20260506043522 | 9 | 26 | 14.5 | 27.4 | 0.00 | 0.00 | 0.00 | 77 | 1011.3 |
| 20260506043037 | 9 | 33 | 17.7 | 27.4 | 0.00 | 0.00 | 0.00 | 78 | 1011.2 |
| 20260506042522 | 9 | 52 | 8.0 | 19.3 | 0.00 | 0.00 | 0.00 | 79 | 1011.4 |
| 20260506042022 | 9 | 344 | 9.7 | 17.7 | 0.00 | 0.00 | 0.00 | 79 | 1011.4 |
| 20260506041546 | 9 | 15 | 11.3 | 17.7 | 0.00 | 0.00 | 0.00 | 79 | 1011.3 |
| 20260506041021 | 9 | 46 | 6.4 | 16.1 | 0.00 | 0.00 | 0.00 | 79 | 1011.4 |
| 20260506040522 | 9 | 19 | 8.0 | 17.7 | 0.00 | 0.00 | 0.00 | 79 | 1011.5 |
| 20260506040043 | 9 | 360 | 9.7 | 17.7 | 0.00 | 0.00 | 0.00 | 78 | 1011.7 |
| 20260506035522 | 9 | 16 | 11.3 | 19.3 | 0.00 | 0.00 | 0.00 | 79 | 1011.7 |
| 20260506035022 | 9 | 65 | 12.9 | 19.3 | 0.00 | 0.00 | 0.00 | 79 | 1011.5 |
| 20260506034539 | 9 | 38 | 9.7 | 16.1 | 0.00 | 0.00 | 0.00 | 79 | 1011.8 |
| 20260506034022 | 9 | 26 | 8.0 | 16.1 | 0.00 | 0.00 | 0.00 | 79 | 1011.7 |
| 20260506033521 | 9 | 350 | 8.0 | 19.3 | 0.00 | 0.00 | 0.00 | 80 | 1011.7 |
| 20260506033038 | 9 | 53 | 8.0 | 25.7 | 0.00 | 0.00 | 0.00 | 80 | 1011.5 |
| 20260506032521 | 9 | 30 | 11.3 | 25.7 | 0.00 | 0.00 | 0.00 | 81 | 1011.3 |
| 20260506032022 | 9 | 28 | 9.7 | 22.5 | 0.00 | 0.00 | 0.00 | 81 | 1011.2 |
| 20260506031554 | 9 | 22 | 8.0 | 19.3 | 0.00 | 0.00 | 0.00 | 81 | 1011.2 |
| 20260506031021 | 9 | 5 | 9.7 | 19.3 | 0.00 | 0.00 | 0.00 | 81 | 1011.3 |
| 20260506030523 | 9 | 9 | 4.8 | 16.1 | 0.00 | 0.00 | 0.00 | 81 | 1011.5 |
| 20260506030048 | 9 | 26 | 8.0 | 16.1 | 0.00 | 0.00 | 0.00 | 81 | 1011.4 |
| 20260506025525 | 9 | 21 | 8.0 | 16.1 | 0.00 | 0.00 | 0.00 | 81 | 1011.3 |
| 20260506025022 | 9 | 360 | 8.0 | 14.5 | 0.00 | 0.00 | 0.00 | 82 | 1011.3 |
| 20260506024540 | 9 | 327 | 6.4 | 12.9 | 0.00 | 0.00 | 0.00 | 82 | 1011.4 |
| 20260506024020 | 9 | 341 | 3.2 | 8.0 | 0.00 | 0.00 | 0.00 | 82 | 1011.3 |
| 20260506023522 | 10 | 352 | 1.6 | 8.0 | 0.00 | 0.00 | 0.00 | 82 | 1011.2 |
| 20260506023039 | 10 | 5 | 1.6 | 8.0 | 0.00 | 0.00 | 0.00 | 82 | 1011.0 |
| 20260506022519 | 10 | 15 | 3.2 | 6.4 | 0.00 | 0.00 | 0.00 | 82 | 1010.9 |
| 20260506022021 | 10 | 325 | 3.2 | 6.4 | 0.00 | 0.00 | 0.00 | 81 | 1011.0 |
| 20260506021538 | 10 | 340 | 3.2 | 6.4 | 0.00 | 0.00 | 0.00 | 81 | 1010.8 |
| 20260506021021 | 10 | 25 | 1.6 | 4.8 | 0.00 | 0.00 | 0.00 | 81 | 1010.8 |
| 20260506020525 | 10 | 26 | 0.0 | 4.8 | 0.00 | 0.00 | 0.00 | 80 | 1010.5 |
| 20260506020038 | 10 | 0 | 0.0 | 0.0 | 0.00 | 0.00 | 0.00 | 80 | 1010.6 |
| 20260506015523 | 10 | 0 | 0.0 | 6.4 | 0.00 | 0.00 | 0.00 | 80 | 1010.3 |
| 20260506015022 | 10 | 0 | 0.0 | 6.4 | 0.00 | 0.00 | 0.00 | 80 | 1010.3 |
| 20260506014537 | 10 | 26 | 3.2 | 6.4 | 0.00 | 0.00 | 0.00 | 80 | 1010.1 |
| 20260506014024 | 10 | 26 | 0.0 | 4.8 | 0.00 | 0.00 | 0.00 | 79 | 1010.0 |
| 20260506013521 | 10 | 15 | 1.6 | 8.0 | 0.00 | 0.00 | 0.00 | 79 | 1010.2 |
| 20260506013043 | 10 | 40 | 3.2 | 8.0 | 0.00 | 0.00 | 0.00 | 79 | 1010.0 |
| 20260506012522 | 10 | 43 | 3.2 | 4.8 | 0.00 | 0.00 | 0.00 | 78 | 1009.8 |
| 20260506012021 | 10 | 90 | 0.0 | 0.0 | 0.00 | 0.00 | 0.00 | 78 | 1010.0 |
| 20260506011539 | 10 | 0 | 0.0 | 4.8 | 0.00 | 0.00 | 0.00 | 78 | 1010.1 |
| 20260506011022 | 10 | 0 | 1.6 | 8.0 | 0.00 | 0.00 | 0.00 | 78 | 1009.9 |
| 20260506010522 | 10 | 89 | 1.6 | 8.0 | 0.00 | 0.00 | 0.00 | 78 | 1009.9 |
| 20260506010040 | 10 | 88 | 4.8 | 8.0 | 0.00 | 0.00 | 0.00 | 77 | 1009.7 |
| 20260506005521 | 10 | 71 | 4.8 | 8.0 | 0.00 | 0.00 | 0.00 | 77 | 1009.6 |
| 20260506005027 | 10 | 87 | 4.8 | 9.7 | 0.00 | 0.00 | 0.00 | 77 | 1009.6 |
| 20260506004605 | 10 | 55 | 4.8 | 11.3 | 0.00 | 0.00 | 0.00 | 77 | 1009.6 |
| 20260506004023 | 10 | 38 | 4.8 | 12.9 | 0.00 | 0.00 | 0.00 | 76 | 1009.7 |
| 20260506003522 | 10 | 59 | 8.0 | 17.7 | 0.00 | 0.00 | 0.00 | 76 | 1009.6 |
| 20260506003038 | 10 | 69 | 6.4 | 17.7 | 0.00 | 0.00 | 0.00 | 76 | 1009.5 |
| 20260506002522 | 10 | 62 | 9.7 | 17.7 | 0.00 | 0.00 | 0.00 | 76 | 1009.5 |
| 20260506002022 | 10 | 54 | 8.0 | 17.7 | 0.00 | 0.00 | 0.00 | 76 | 1009.5 |
| 20260506001538 | 10 | 63 | 11.3 | 20.9 | 0.00 | 0.00 | 0.00 | 75 | 1009.3 |
| 20260506001022 | 10 | 63 | 11.3 | 20.9 | 0.00 | 0.00 | 0.00 | 75 | 1009.3 |
| 20260506000521 | 10 | 55 | 12.9 | 20.9 | 0.00 | 0.00 | 0.00 | 75 | 1009.2 |
| 20260506000038 | 10 | 63 | 12.9 | 25.7 | 0.00 | 0.00 | 0.00 | 75 | 1009.1 |
| 20260505235522 | 10 | 61 | 11.3 | 25.7 | 0.00 | 0.00 | 0.00 | 75 | 1009.2 |
| 20260505235023 | 10 | 57 | 16.1 | 25.7 | 0.00 | 0.00 | 0.00 | 74 | 1009.1 |
| 20260505234604 | 10 | 72 | 16.1 | 25.7 | 0.00 | 0.00 | 0.00 | 74 | 1009.1 |
| 20260505234022 | 10 | 49 | 12.9 | 24.1 | 0.00 | 0.00 | 0.00 | 74 | 1009.1 |
| 20260505233521 | 10 | 42 | 14.5 | 24.1 | 0.00 | 0.00 | 0.00 | 74 | 1009.2 |
| 20260505233038 | 10 | 46 | 16.1 | 29.0 | 0.00 | 0.00 | 0.00 | 74 | 1009.1 |
| 20260505232522 | 10 | 61 | 17.7 | 29.0 | 0.00 | 0.00 | 0.00 | 73 | 1009.0 |
| 20260505232023 | 10 | 50 | 16.1 | 29.0 | 0.00 | 0.00 | 0.00 | 73 | 1009.2 |
| 20260505231539 | 10 | 67 | 19.3 | 29.0 | 0.00 | 0.00 | 0.00 | 72 | 1009.1 |
| 20260505231022 | 10 | 76 | 19.3 | 27.4 | 0.00 | 0.00 | 0.00 | 72 | 1009.0 |
| 20260505230522 | 10 | 43 | 16.1 | 33.8 | 0.00 | 0.00 | 0.00 | 72 | 1008.9 |
| 20260505230038 | 10 | 44 | 20.9 | 33.8 | 0.00 | 0.00 | 0.00 | 72 | 1008.9 |
| 20260505225522 | 10 | 53 | 17.7 | 29.0 | 0.00 | 0.00 | 0.00 | 71 | 1008.9 |
| 20260505225022 | 10 | 65 | 19.3 | 29.0 | 0.00 | 0.00 | 0.00 | 70 | 1008.9 |
| 20260505224538 | 10 | 65 | 19.3 | 29.0 | 0.00 | 0.00 | 0.00 | 71 | 1009.0 |
| 20260505224022 | 10 | 58 | 16.1 | 30.6 | 0.00 | 0.00 | 0.00 | 70 | 1008.8 |
| 20260505223522 | 10 | 32 | 14.5 | 30.6 | 0.00 | 0.00 | 0.00 | 71 | 1008.6 |
| 20260505223058 | 10 | 61 | 17.7 | 32.2 | 0.00 | 0.00 | 0.00 | 72 | 1008.6 |
| 20260505222522 | 10 | 40 | 19.3 | 33.8 | 0.00 | 0.00 | 0.00 | 71 | 1008.8 |
| 20260505222023 | 10 | 32 | 19.3 | 33.8 | 0.00 | 0.00 | 0.00 | 71 | 1008.9 |
| 20260505221539 | 10 | 54 | 16.1 | 30.6 | 0.00 | 0.00 | 0.00 | 71 | 1008.8 |
| 20260505221021 | 10 | 72 | 17.7 | 30.6 | 0.00 | 0.00 | 0.00 | 71 | 1008.7 |
| 20260505220521 | 10 | 43 | 20.9 | 35.4 | 0.00 | 0.00 | 0.00 | 71 | 1008.9 |
| 20260505220043 | 10 | 62 | 24.1 | 35.4 | 0.00 | 0.00 | 0.00 | 71 | 1009.1 |
| 20260505215523 | 10 | 55 | 24.1 | 35.4 | 0.00 | 0.00 | 0.00 | 71 | 1009.1 |
| 20260505215022 | 10 | 36 | 17.7 | 37.0 | 0.00 | 0.00 | 0.00 | 71 | 1009.0 |
| 20260505214542 | 10 | 52 | 25.7 | 37.0 | 0.00 | 0.00 | 0.00 | 70 | 1009.1 |
| 20260505214023 | 10 | 26 | 24.1 | 35.4 | 0.00 | 0.00 | 0.00 | 70 | 1009.1 |
| 20260505213522 | 10 | 56 | 24.1 | 41.8 | 0.00 | 0.00 | 0.00 | 69 | 1009.2 |
| 20260505213037 | 10 | 61 | 22.5 | 43.5 | 0.00 | 0.00 | 0.00 | 69 | 1009.3 |
| 20260505212522 | 10 | 58 | 30.6 | 43.5 | 0.00 | 0.00 | 0.00 | 68 | 1009.2 |
| 20260505212023 | 10 | 71 | 24.1 | 35.4 | 0.00 | 0.00 | 0.00 | 69 | 1009.2 |
| 20260505211539 | 10 | 36 | 22.5 | 35.4 | 0.00 | 0.00 | 0.00 | 71 | 1009.2 |
| 20260505211022 | 10 | 38 | 24.1 | 35.4 | 0.00 | 0.00 | 0.00 | 71 | 1009.2 |
| 20260505210521 | 10 | 33 | 20.9 | 35.4 | 0.00 | 0.00 | 0.00 | 71 | 1009.2 |
| 20260505210038 | 10 | 50 | 19.3 | 35.4 | 0.00 | 0.00 | 0.00 | 71 | 1009.3 |
| 20260505205523 | 10 | 55 | 17.7 | 30.6 | 0.00 | 0.00 | 0.00 | 71 | 1009.2 |
| 20260505205021 | 10 | 52 | 17.7 | 35.4 | 0.00 | 0.00 | 0.00 | 71 | 1009.3 |
| 20260505204537 | 10 | 71 | 19.3 | 35.4 | 0.00 | 0.00 | 0.00 | 71 | 1009.2 |
| 20260505204022 | 10 | 57 | 19.3 | 33.8 | 0.00 | 0.00 | 0.00 | 70 | 1009.1 |
| 20260505203522 | 10 | 76 | 25.7 | 35.4 | 0.00 | 0.00 | 0.00 | 70 | 1009.1 |
| 20260505203038 | 10 | 28 | 27.4 | 41.8 | 0.00 | 0.00 | 0.00 | 69 | 1009.1 |
| 20260505202523 | 10 | 58 | 24.1 | 41.8 | 0.00 | 0.00 | 0.00 | 69 | 1009.1 |
| 20260505202022 | 10 | 60 | 29.0 | 43.5 | 0.00 | 0.00 | 0.00 | 68 | 1009.1 |
| 20260505201538 | 10 | 60 | 29.0 | 43.5 | 0.00 | 0.00 | 0.00 | 67 | 1009.1 |
| 20260505201022 | 10 | 53 | 29.0 | 43.5 | 0.00 | 0.00 | 0.00 | 68 | 1009.3 |
| 20260505200522 | 10 | 57 | 22.5 | 37.0 | 0.00 | 0.00 | 0.00 | 70 | 1009.1 |
| 20260505200042 | 10 | 57 | 24.1 | 40.2 | 0.00 | 0.00 | 0.00 | 70 | 1009.0 |
| 20260505195523 | 10 | 60 | 25.7 | 49.9 | 0.00 | 0.00 | 0.00 | 69 | 1009.1 |
| 20260505195023 | 10 | 60 | 27.4 | 49.9 | 0.00 | 0.00 | 0.00 | 69 | 1009.1 |
| 20260505194539 | 10 | 47 | 30.6 | 49.9 | 0.00 | 0.00 | 0.00 | 69 | 1009.0 |
| 20260505194023 | 10 | 80 | 20.9 | 38.6 | 0.00 | 0.00 | 0.00 | 71 | 1009.1 |
| 20260505193522 | 10 | 44 | 24.1 | 38.6 | 0.00 | 0.00 | 0.00 | 70 | 1009.1 |
| 20260505193039 | 10 | 43 | 27.4 | 38.6 | 0.00 | 0.00 | 0.00 | 69 | 1009.1 |
| 20260505192523 | 10 | 49 | 22.5 | 38.6 | 0.00 | 0.00 | 0.00 | 67 | 1009.2 |
| 20260505192023 | 10 | 60 | 20.9 | 49.9 | 0.00 | 0.00 | 0.00 | 67 | 1009.2 |
| 20260505191538 | 10 | 71 | 33.8 | 49.9 | 0.00 | 0.00 | 0.00 | 66 | 1009.0 |
| 20260505191023 | 10 | 72 | 32.2 | 46.7 | 0.00 | 0.00 | 0.00 | 67 | 1009.0 |
| 20260505190525 | 11 | 42 | 29.0 | 51.5 | 0.00 | 0.00 | 0.00 | 67 | 1008.8 |
| 20260505190046 | 11 | 70 | 25.7 | 56.3 | 0.00 | 0.00 | 0.00 | 67 | 1008.7 |
| 20260505185522 | 11 | 61 | 27.4 | 56.3 | 0.00 | 0.00 | 0.00 | 66 | 1008.7 |
| 20260505185022 | 11 | 55 | 32.2 | 49.9 | 0.00 | 0.00 | 0.00 | 67 | 1008.4 |
| 20260505184538 | 10 | 50 | 27.4 | 49.9 | 0.00 | 0.00 | 0.00 | 68 | 1008.3 |
| 20260505184021 | 11 | 74 | 27.4 | 48.3 | 0.00 | 0.00 | 0.00 | 68 | 1008.2 |
| 20260505183522 | 11 | 65 | 25.7 | 41.8 | 0.00 | 0.00 | 0.00 | 68 | 1008.4 |
| 20260505183045 | 11 | 32 | 20.9 | 38.6 | 0.00 | 0.00 | 0.00 | 69 | 1008.4 |
| 20260505182522 | 11 | 53 | 22.5 | 45.1 | 0.00 | 0.00 | 0.00 | 68 | 1008.4 |
| 20260505182022 | 11 | 33 | 29.0 | 46.7 | 0.00 | 0.00 | 0.00 | 67 | 1008.4 |
| 20260505181540 | 11 | 81 | 32.2 | 48.3 | 0.00 | 0.00 | 0.00 | 67 | 1008.3 |
| 20260505181042 | 10 | 63 | 27.4 | 48.3 | 0.00 | 0.00 | 0.00 | 66 | 1008.3 |
| 20260505180522 | 10 | 60 | 32.2 | 53.1 | 0.00 | 0.00 | 0.00 | 66 | 1008.4 |
| 20260505180041 | 10 | 24 | 32.2 | 53.1 | 0.00 | 0.00 | 0.00 | 65 | 1008.6 |
| 20260505175521 | 11 | 44 | 37.0 | 49.9 | 0.00 | 0.00 | 0.00 | 65 | 1008.7 |
| 20260505175022 | 10 | 46 | 32.2 | 49.9 | 0.00 | 0.00 | 0.00 | 65 | 1008.8 |
| 20260505174540 | 11 | 42 | 30.6 | 49.9 | 0.00 | 0.00 | 0.00 | 64 | 1008.7 |
| 20260505174023 | 11 | 61 | 29.0 | 49.9 | 0.00 | 0.00 | 0.00 | 64 | 1008.5 |
| 20260505173526 | 11 | 61 | 32.2 | 49.9 | 0.00 | 0.00 | 0.00 | 65 | 1008.3 |
| 20260505173044 | 11 | 40 | 30.6 | 46.7 | 0.00 | 0.00 | 0.00 | 66 | 1008.3 |
| 20260505172524 | 11 | 34 | 30.6 | 51.5 | 0.00 | 0.00 | 0.00 | 66 | 1008.3 |
| 20260505172022 | 11 | 26 | 33.8 | 56.3 | 0.00 | 0.00 | 0.00 | 66 | 1008.5 |
| 20260505171538 | 11 | 55 | 35.4 | 56.3 | 0.00 | 0.00 | 0.00 | 65 | 1008.5 |
| 20260505171025 | 11 | 29 | 30.6 | 48.3 | 0.00 | 0.00 | 0.00 | 64 | 1008.5 |
| 20260505170522 | 11 | 44 | 29.0 | 48.3 | 0.00 | 0.00 | 0.00 | 64 | 1008.6 |
| 20260505170038 | 11 | 54 | 33.8 | 49.9 | 0.00 | 0.00 | 0.00 | 64 | 1008.5 |
| 20260505165522 | 11 | 64 | 35.4 | 49.9 | 0.00 | 0.00 | 0.00 | 63 | 1008.3 |
| 20260505165022 | 11 | 67 | 33.8 | 56.3 | 0.00 | 0.00 | 0.00 | 64 | 1008.2 |
| 20260505164539 | 11 | 54 | 32.2 | 56.3 | 0.00 | 0.00 | 0.00 | 65 | 1008.1 |
| 20260505164023 | 11 | 49 | 32.2 | 48.3 | 0.00 | 0.00 | 0.00 | 66 | 1008.1 |
| 20260505163523 | 11 | 46 | 29.0 | 48.3 | 0.00 | 0.00 | 0.00 | 66 | 1008.1 |
| 20260505163038 | 11 | 58 | 29.0 | 46.7 | 0.00 | 0.00 | 0.00 | 66 | 1008.1 |
| 20260505162521 | 11 | 47 | 30.6 | 61.2 | 0.00 | 0.00 | 0.00 | 65 | 1008.1 |
| 20260505162024 | 11 | 65 | 33.8 | 61.2 | 0.00 | 0.00 | 0.00 | 64 | 1008.2 |
| 20260505161540 | 11 | 44 | 35.4 | 51.5 | 0.00 | 0.00 | 0.00 | 64 | 1008.0 |
| 20260505161022 | 11 | 44 | 30.6 | 51.5 | 0.00 | 0.00 | 0.00 | 66 | 1008.0 |
| 20260505160523 | 11 | 52 | 29.0 | 51.5 | 0.00 | 0.00 | 0.00 | 64 | 1007.6 |
| 20260505153040 | 11 | 83 | 38.6 | 61.2 | 0.00 | 0.00 | 0.00 | 64 | 1006.8 |
| 20260505152523 | 11 | 67 | 33.8 | 57.9 | 0.00 | 0.00 | 0.00 | 65 | 1007.0 |
| 20260505152021 | 11 | 51 | 33.8 | 59.5 | 0.00 | 0.00 | 0.00 | 65 | 1006.9 |
| 20260505151535 | 11 | 60 | 32.2 | 59.5 | 0.00 | 0.00 | 0.00 | 65 | 1007.2 |
| 20260505151022 | 11 | 69 | 29.0 | 59.5 | 0.00 | 0.00 | 0.00 | 65 | 1007.1 |
| 20260505150522 | 11 | 65 | 22.5 | 51.5 | 0.00 | 0.00 | 0.00 | 65 | 1007.3 |
| 20260505140522 | 10 | 50 | 24.1 | 48.3 | 0.00 | 0.00 | 0.00 | 66 | 1007.1 |
| 20260505125024 | 11 | 54 | 25.7 | 49.9 | 0.00 | 0.00 | 0.00 | 67 | 1005.6 |
| 20260505124543 | 11 | 40 | 33.8 | 49.9 | 0.00 | 0.00 | 0.00 | 66 | 1005.6 |
| 20260505124020 | 11 | 71 | 30.6 | 54.7 | 0.00 | 0.00 | 0.00 | 66 | 1005.6 |
| 20260505123525 | 11 | 44 | 33.8 | 54.7 | 0.00 | 0.00 | 0.00 | 66 | 1005.4 |
| 20260505123038 | 11 | 48 | 30.6 | 48.3 | 0.00 | 0.00 | 0.00 | 65 | 1005.1 |
| 20260505122521 | 11 | 47 | 30.6 | 48.3 | 0.00 | 0.00 | 0.00 | 65 | 1005.1 |
| 20260505122026 | 11 | 49 | 29.0 | 53.1 | 0.00 | 0.00 | 0.00 | 66 | 1004.9 |
| 20260505121542 | 11 | 31 | 32.2 | 57.9 | 0.00 | 0.00 | 0.00 | 66 | 1004.9 |
| 20260505121021 | 11 | 17 | 30.6 | 57.9 | 0.00 | 0.00 | 0.00 | 66 | 1004.9 |
| 20260505120521 | 11 | 49 | 25.7 | 51.5 | 0.00 | 0.00 | 0.00 | 66 | 1004.8 |
| 20260505120047 | 11 | 58 | 33.8 | 54.7 | 0.00 | 0.00 | 0.00 | 65 | 1004.5 |
| 20260505115520 | 11 | 65 | 37.0 | 54.7 | 0.00 | 0.00 | 0.00 | 64 | 1004.4 |
| 20260505115023 | 11 | 67 | 25.7 | 53.1 | 0.00 | 0.00 | 0.00 | 64 | 1004.3 |
| 20260505114542 | 11 | 55 | 27.4 | 53.1 | 0.00 | 0.00 | 0.00 | 65 | 1004.2 |
| 20260505114023 | 11 | 37 | 30.6 | 53.1 | 0.00 | 0.00 | 0.00 | 64 | 1004.1 |
| 20260505113522 | 11 | 61 | 29.0 | 53.1 | 0.00 | 0.00 | 0.00 | 64 | 1004.0 |
| 20260505113036 | 11 | 52 | 32.2 | 53.1 | 0.00 | 0.00 | 0.00 | 64 | 1003.9 |
| 20260505112527 | 11 | 51 | 30.6 | 48.3 | 0.00 | 0.00 | 0.00 | 65 | 1003.6 |
| 20260505112020 | 11 | 35 | 30.6 | 48.3 | 0.00 | 0.00 | 0.00 | 65 | 1003.6 |
| 20260505111539 | 11 | 44 | 29.0 | 46.7 | 0.00 | 0.00 | 0.00 | 65 | 1003.6 |
| 20260505111023 | 11 | 70 | 30.6 | 48.3 | 0.00 | 0.00 | 0.00 | 65 | 1003.5 |
| 20260505110521 | 11 | 61 | 30.6 | 49.9 | 0.00 | 0.00 | 0.00 | 65 | 1003.3 |
| 20260505102024 | 12 | 63 | 35.4 | 59.5 | 0.00 | 0.00 | 0.00 | 67 | 1002.9 |
| 20260505101543 | 12 | 30 | 32.2 | 56.3 | 0.00 | 0.00 | 0.00 | 67 | 1002.9 |
| 20260505101023 | 12 | 44 | 37.0 | 56.3 | 0.00 | 0.00 | 0.00 | 67 | 1002.8 |
| 20260505100522 | 12 | 65 | 30.6 | 56.3 | 0.00 | 0.00 | 0.00 | 67 | 1002.8 |
| 20260505100041 | 12 | 40 | 33.8 | 56.3 | 0.00 | 0.00 | 0.00 | 68 | 1002.8 |
| 20260505095522 | 12 | 61 | 40.2 | 56.3 | 0.00 | 0.00 | 0.00 | 68 | 1002.6 |
| 20260505095021 | 12 | 56 | 35.4 | 57.9 | 0.00 | 0.00 | 0.00 | 69 | 1002.7 |
| 20260505094537 | 12 | 49 | 35.4 | 57.9 | 0.00 | 0.00 | 0.00 | 69 | 1002.6 |
| 20260505094023 | 12 | 59 | 40.2 | 54.7 | 0.00 | 0.00 | 0.00 | 70 | 1002.4 |
| 20260505093526 | 12 | 61 | 30.6 | 54.7 | 0.00 | 0.00 | 0.00 | 71 | 1002.5 |
| 20260505093037 | 12 | 57 | 35.4 | 54.7 | 0.00 | 0.00 | 0.00 | 72 | 1002.5 |
| 20260505092520 | 12 | 38 | 29.0 | 54.7 | 0.00 | 0.00 | 0.00 | 73 | 1002.5 |
| 20260505092023 | 13 | 26 | 33.8 | 49.9 | 0.00 | 0.00 | 0.00 | 73 | 1002.5 |
| 20260505091537 | 13 | 30 | 24.1 | 45.1 | 0.00 | 0.00 | 0.00 | 72 | 1002.5 |
| 20260505091020 | 13 | 61 | 24.1 | 45.1 | 0.00 | 0.00 | 0.00 | 71 | 1002.3 |
| 20260505090522 | 13 | 63 | 25.7 | 43.5 | 0.00 | 0.00 | 0.00 | 71 | 1002.1 |
| 20260505090040 | 13 | 61 | 25.7 | 51.5 | 0.00 | 0.00 | 0.00 | 72 | 1002.0 |
| 20260505085522 | 13 | 39 | 30.6 | 51.5 | 0.00 | 0.00 | 0.00 | 72 | 1001.9 |
| 20260505085023 | 13 | 72 | 27.4 | 48.3 | 0.00 | 0.00 | 0.00 | 72 | 1001.8 |
| 20260505084546 | 13 | 63 | 29.0 | 49.9 | 0.00 | 0.00 | 0.00 | 72 | 1001.7 |
| 20260505084021 | 13 | 48 | 33.8 | 53.1 | 0.00 | 0.00 | 0.00 | 72 | 1001.8 |
| 20260505083520 | 14 | 36 | 30.6 | 56.3 | 0.00 | 0.00 | 0.00 | 72 | 1001.6 |
| 20260505083038 | 14 | 28 | 38.6 | 56.3 | 0.00 | 0.00 | 0.00 | 72 | 1001.6 |
| 20260505082520 | 15 | 53 | 29.0 | 54.7 | 0.00 | 0.00 | 0.00 | 74 | 1001.7 |
| 20260505082020 | 15 | 49 | 32.2 | 54.7 | 0.00 | 0.00 | 0.00 | 77 | 1001.7 |
| 20260505081537 | 15 | 49 | 25.7 | 41.8 | 0.00 | 0.00 | 0.00 | 78 | 1001.6 |
| 20260505081022 | 15 | 48 | 25.7 | 35.4 | 0.00 | 0.00 | 0.00 | 79 | 1001.4 |
| 20260505080522 | 16 | 30 | 22.5 | 41.8 | 0.00 | 0.00 | 0.00 | 77 | 1001.4 |
| 20260505080037 | 16 | 34 | 29.0 | 41.8 | 0.00 | 0.00 | 0.00 | 75 | 1001.2 |
| 20260505075521 | 16 | 22 | 24.1 | 37.0 | 0.00 | 0.00 | 0.00 | 74 | 1001.1 |
| 20260505075025 | 16 | 51 | 22.5 | 37.0 | 0.00 | 0.00 | 0.00 | 74 | 1000.9 |
| 20260505074540 | 16 | 68 | 25.7 | 37.0 | 0.00 | 0.00 | 0.00 | 74 | 1000.8 |
| 20260505074021 | 16 | 51 | 24.1 | 43.5 | 0.00 | 0.00 | 0.00 | 74 | 1000.9 |
| 20260505073521 | 17 | 19 | 22.5 | 43.5 | 0.00 | 0.00 | 0.00 | 73 | 1000.9 |
| 20260505073044 | 17 | 24 | 22.5 | 45.1 | 0.00 | 0.00 | 0.00 | 72 | 1000.9 |
| 20260505072521 | 17 | 55 | 29.0 | 45.1 | 0.00 | 0.00 | 0.00 | 71 | 1000.8 |
| 20260505072020 | 18 | 44 | 29.0 | 45.1 | 0.00 | 0.00 | 0.00 | 75 | 1000.7 |
| 20260505071537 | 18 | 44 | 14.5 | 25.7 | 0.00 | 0.00 | 0.00 | 79 | 1000.7 |
| 20260505071020 | 18 | 56 | 12.9 | 20.9 | 0.00 | 0.00 | 0.00 | 79 | 1000.6 |
| 20260505070520 | 18 | 51 | 14.5 | 20.9 | 0.00 | 0.00 | 0.00 | 79 | 1000.5 |
| 20260505070048 | 17 | 54 | 12.9 | 17.7 | 0.00 | 0.00 | 0.00 | 79 | 1000.5 |
| 20260505065523 | 17 | 57 | 11.3 | 17.7 | 0.00 | 0.00 | 0.00 | 79 | 1000.5 |
| 20260505065021 | 17 | 44 | 6.4 | 17.7 | 0.00 | 0.00 | 0.00 | 79 | 1000.5 |
| 20260505064541 | 17 | 46 | 9.7 | 17.7 | 0.00 | 0.00 | 0.00 | 78 | 1000.4 |
| 20260505064021 | 17 | 61 | 6.4 | 12.9 | 0.00 | 0.00 | 0.00 | 78 | 1000.4 |
| 20260505063521 | 17 | 47 | 6.4 | 14.5 | 0.00 | 0.00 | 0.00 | 78 | 1000.3 |
| 20260505063039 | 17 | 22 | 6.4 | 16.1 | 0.00 | 0.00 | 0.00 | 78 | 1000.2 |
| 20260505062521 | 17 | 17 | 6.4 | 19.3 | 0.00 | 0.00 | 0.00 | 78 | 1000.2 |
| 20260505062021 | 17 | 352 | 9.7 | 19.3 | 0.00 | 0.00 | 0.00 | 79 | 1000.0 |
| 20260505061541 | 17 | 27 | 9.7 | 14.5 | 0.00 | 0.00 | 0.00 | 78 | 999.9 |
| 20260505061020 | 17 | 16 | 9.7 | 14.5 | 0.00 | 0.00 | 0.00 | 78 | 999.7 |
| 20260505060523 | 17 | 13 | 6.4 | 12.9 | 0.00 | 0.00 | 0.00 | 78 | 999.7 |
| 20260505060039 | 17 | 36 | 4.8 | 9.7 | 0.00 | 0.00 | 0.00 | 78 | 999.6 |